sat.trackr.live / text

‹ back to catalog

UNKNOWN

NORAD 81317

UNKNOWN UNKNOWN UNKNOWN

§ Identity

Operator
Country
Launch date
Launch site
Launch vehicle
Mass (kg)
RCS (m²)

External: N2YO · Heavens-Above

§ Orbital elements

Epoch: 2026-05-24T01:59:24.147168Z

Period
107.62 min
Inclination
67.1352°
Eccentricity
0.0218964
Mean motion
13.38082248 rev/d
Perigee alt
952.3 km
Apogee alt
1,280.5 km
Semi-major
7,494.6 km
B*
2.9441e-4
RAAN
179.1303°
Arg perigee
281.8569°
Mean anomaly
104.8288°
Rev number
61,035

§ Raw data

UNKNOWN1 81317U          26144.08291837  .00000114  00000+0  29441-3 0  99932 81317  67.1352 179.1303 0218964 281.8569 104.8288 13.38082248610354

JSON: /api/v1/satellites/81317 · /tle

For live sub-satellite position, see the globe view (requires WebGL).

§ Visibility from observer

Set your observer location to see the next 7 days of passes ≥ 10°. The values pass through the URL so the page stays shareable.

No JS? Fill the form by hand. The geolocation button needs JavaScript.